Date String (YYYY-MM-DD hh:mm:ss) UTC,Instrument flags,Ambient pressure (hPa),Sample flow (lpm),Bypass flow (lpm),Sample temperature (°C),Ambient temperature (°C),ASC tube jacket temperature (°C),LED temperature (°C),Box temperature (°C),Sample RH (%),Span deviation,Mass concentration (μg/m³),Mass concentration (μg/m³),Mass concentration (μg/m³)
DateTimeUTC,F1_M11,P_M11,Q1_M11,Q2_M11,T1_M11,T2_M11,T3_M11,T4_M11,T5_M11,U1_M11,ZSPAN_M11,X0_M11,X2_M11,X1_M11
2022-11-16 07:00:00,,0833.0,5.00,0.00,21.7,20.0,00.0,30.7,23.3,06.1,0000.0,0002.01,0001.61,0001.55
2022-11-16 07:01:00,,0833.0,5.00,0.00,21.7,19.8,00.0,30.7,23.3,06.0,0000.0,0002.03,0001.62,0001.55
2022-11-16 07:02:00,,0833.1,5.01,0.00,21.6,19.7,00.0,30.7,23.2,06.1,0000.0,0002.00,0001.61,0001.55
2022-11-16 07:03:00,,0833.0,5.01,0.00,21.6,19.7,00.0,30.7,23.2,06.0,0000.0,0001.99,0001.61,0001.55
2022-11-16 07:04:00,,0833.1,5.00,0.00,21.6,20.0,00.0,30.6,23.2,06.0,0000.0,0002.02,0001.63,0001.56
2022-11-16 07:05:00,,0833.0,5.01,0.00,21.6,21.2,00.0,30.6,23.5,05.9,0000.0,0002.14,0001.68,0001.58
2022-11-16 07:06:00,,0833.1,4.98,0.00,21.8,21.9,00.0,30.6,23.7,06.0,0000.0,0002.23,0001.73,0001.59
2022-11-16 07:07:00,,0833.0,5.00,0.00,21.8,21.6,00.0,30.6,23.8,06.0,0000.0,0002.28,0001.75,0001.61
2022-11-16 07:08:00,,0833.0,5.00,0.00,21.8,21.2,00.0,30.7,23.7,06.1,0000.0,0002.33,0001.76,0001.61
2022-11-16 07:09:00,,0833.1,5.00,0.00,21.8,21.0,00.0,30.7,23.6,06.0,0000.0,0002.36,0001.77,0001.62
2022-11-16 07:10:00,,0833.0,5.00,0.00,21.8,20.8,00.0,30.7,23.5,06.0,0000.0,0002.43,0001.79,0001.62
2022-11-16 07:11:00,,0833.1,5.00,0.00,21.8,20.5,00.0,30.7,23.5,06.0,0000.0,0002.48,0001.80,0001.62
2022-11-16 07:12:00,,0833.0,5.00,0.00,21.7,20.3,00.0,30.7,23.4,06.1,0000.0,0002.47,0001.79,0001.61
2022-11-16 07:13:00,,0833.0,5.00,0.00,21.7,20.2,00.0,30.7,23.4,06.0,0000.0,0002.51,0001.80,0001.61
2022-11-16 07:14:00,,0833.0,5.01,0.00,21.7,20.1,00.0,30.7,23.4,06.1,0000.0,0002.48,0001.80,0001.62
2022-11-16 07:15:00,,0832.9,5.00,0.00,21.7,20.1,00.0,30.7,23.4,06.1,0000.0,0002.47,0001.79,0001.62
2022-11-16 07:16:00,,0833.1,5.01,0.00,21.7,20.5,00.0,30.6,23.4,06.0,0000.0,0002.47,0001.78,0001.61
2022-11-16 07:17:00,,0833.1,4.98,0.00,21.8,21.6,00.0,30.6,23.7,06.2,0000.0,0002.41,0001.76,0001.61
2022-11-16 07:18:00,,0833.1,5.00,0.00,21.9,22.1,00.0,30.6,23.9,06.1,0000.0,0002.45,0001.77,0001.62
2022-11-16 07:19:00,,0833.0,5.00,0.00,21.9,21.7,00.0,30.6,23.9,06.0,0000.0,0002.39,0001.76,0001.61
2022-11-16 07:20:00,,0833.1,5.01,0.00,21.9,21.3,00.0,30.7,23.8,06.1,0000.0,0002.35,0001.74,0001.60
2022-11-16 07:21:00,,0833.1,5.01,0.00,21.9,21.0,00.0,30.7,23.7,06.1,0000.0,0002.30,0001.72,0001.60
2022-11-16 07:22:00,,0833.0,5.00,0.00,21.9,20.7,00.0,30.7,23.6,06.2,0000.0,0002.30,0001.72,0001.59
2022-11-16 07:23:00,,0833.0,5.00,0.00,21.8,20.5,00.0,30.7,23.6,06.2,0000.0,0002.37,0001.76,0001.60
2022-11-16 07:24:00,,0833.1,5.00,0.00,21.8,20.3,00.0,30.7,23.5,06.3,0000.0,0002.40,0001.77,0001.61
2022-11-16 07:25:00,,0833.0,4.99,0.00,21.8,20.2,00.0,30.7,23.5,06.3,0000.0,0002.44,0001.78,0001.61
2022-11-16 07:26:00,,0833.0,4.99,0.00,21.7,20.2,00.0,30.7,23.4,06.3,0000.0,0002.48,0001.79,0001.61
2022-11-16 07:27:00,,0833.0,5.01,0.00,21.7,20.2,00.0,30.7,23.4,06.3,0000.0,0002.44,0001.79,0001.62
2022-11-16 07:28:00,,0833.0,5.02,0.00,21.8,20.9,00.0,30.6,23.6,06.3,0000.0,0002.47,0001.80,0001.63
2022-11-16 07:29:00,,0833.1,5.00,0.00,21.9,21.8,00.0,30.6,23.8,06.4,0000.0,0002.42,0001.79,0001.63
2022-11-16 07:30:00,,0833.0,4.99,0.00,22.0,22.0,00.0,30.7,23.9,06.3,0000.0,0002.42,0001.80,0001.65
2022-11-16 07:31:00,,0833.0,5.00,0.00,22.0,21.6,00.0,30.7,23.9,06.3,0000.0,0002.47,0001.83,0001.67
2022-11-16 07:32:00,,0833.0,5.00,0.00,21.9,21.3,00.0,30.8,23.8,06.0,0000.0,0002.46,0001.83,0001.68
2022-11-16 07:33:00,,0833.0,5.00,0.00,21.9,21.0,00.0,30.8,23.7,06.0,0000.0,0002.46,0001.83,0001.68
2022-11-16 07:34:00,,0833.1,5.00,0.00,21.9,20.7,00.0,30.8,23.7,06.2,0000.0,0002.60,0001.82,0001.66
2022-11-16 07:35:00,,0833.0,5.00,0.00,21.9,20.6,00.0,30.8,23.6,06.2,0000.0,0002.67,0001.84,0001.66
2022-11-16 07:36:00,,0833.1,5.00,0.00,21.8,20.4,00.0,30.8,23.6,06.3,0000.0,0003.88,0001.84,0001.66
2022-11-16 07:37:00,,0833.0,5.00,0.00,21.8,20.2,00.0,30.8,23.5,06.2,0000.0,0003.86,0001.84,0001.66
2022-11-16 07:38:00,,0833.0,5.00,0.00,21.8,20.2,00.0,30.8,23.4,06.2,0000.0,0003.88,0001.84,0001.65
2022-11-16 07:39:00,,0833.0,5.00,0.00,21.7,20.2,00.0,30.7,23.4,06.2,0000.0,0003.91,0001.82,0001.63
2022-11-16 07:40:00,,0833.0,5.01,0.00,21.8,21.1,00.0,30.7,23.6,06.3,0000.0,0003.89,0001.81,0001.62
2022-11-16 07:41:00,,0833.0,4.99,0.00,21.9,21.9,00.0,30.6,23.8,06.3,0000.0,0003.91,0001.82,0001.62
2022-11-16 07:42:00,,0833.1,4.99,0.00,21.9,21.7,00.0,30.7,23.9,06.4,0000.0,0003.90,0001.82,0001.62
2022-11-16 07:43:00,,0833.0,5.00,0.00,21.9,21.3,00.0,30.7,23.8,06.5,0000.0,0003.90,0001.82,0001.63
2022-11-16 07:44:00,,0833.0,5.00,0.00,21.9,21.0,00.0,30.8,23.8,06.5,0000.0,0003.90,0001.82,0001.63
2022-11-16 07:45:00,,0833.0,5.00,0.00,21.9,20.8,00.0,30.8,23.7,06.4,0000.0,0003.73,0001.82,0001.66
2022-11-16 07:46:00,,0833.0,5.00,0.00,21.9,20.6,00.0,30.8,23.6,06.4,0000.0,0003.59,0001.78,0001.65
2022-11-16 07:47:00,,0833.0,5.00,0.00,21.8,20.5,00.0,30.8,23.6,06.4,0000.0,0002.60,0001.77,0001.65
2022-11-16 07:48:00,,0833.0,4.99,0.00,21.8,20.3,00.0,30.8,23.5,06.4,0000.0,0002.35,0001.77,0001.65
2022-11-16 07:49:00,,0833.0,5.00,0.00,21.8,20.2,00.0,30.8,23.5,06.4,0000.0,0002.31,0001.77,0001.66
2022-11-16 07:50:00,,0833.0,5.00,0.00,21.7,20.2,00.0,30.7,23.5,06.4,0000.0,0002.20,0001.75,0001.67
2022-11-16 07:51:00,,0833.1,5.01,0.00,21.8,21.0,00.0,30.7,23.6,06.4,0000.0,0002.17,0001.74,0001.67
2022-11-16 07:52:00,,0833.0,5.00,0.00,21.9,22.0,00.0,30.7,23.8,06.4,0000.0,0002.17,0001.74,0001.67
2022-11-16 07:53:00,,0833.0,4.99,0.00,22.0,22.0,00.0,30.7,23.9,06.3,0000.0,0002.24,0001.77,0001.67
2022-11-16 07:54:00,,0833.0,4.99,0.00,22.0,21.6,00.0,30.8,23.9,06.4,0000.0,0002.27,0001.78,0001.66
2022-11-16 07:55:00,,0833.0,5.00,0.00,22.0,21.2,00.0,30.8,23.8,06.4,0000.0,0002.25,0001.76,0001.65
2022-11-16 07:56:00,,0833.0,5.00,0.00,21.9,21.0,00.0,30.8,23.7,06.4,0000.0,0002.17,0001.72,0001.63
2022-11-16 07:57:00,,0833.0,5.00,0.00,21.9,20.7,00.0,30.8,23.7,06.4,0000.0,0002.14,0001.71,0001.62
2022-11-16 07:58:00,,0833.0,5.00,0.00,21.9,20.5,00.0,30.8,23.6,06.4,0000.0,0002.32,0001.72,0001.62
2022-11-16 07:59:00,,0833.0,5.00,0.00,21.8,20.4,00.0,30.8,23.6,06.5,0000.0,0003.84,0001.72,0001.61
